Weather History for PASC - August, 2013

Change the Weather History Date:

Thursday, August 22, 2013

  Actual Average Record
Temperature  
Mean Temperature 32 °F -  
Max Temperature 37 °F 44 °F 69 °F (1989)
Min Temperature 28 °F 33 °F 28 °F (1990)
Degree Days  
Heating Degree Days 32    
Moisture  
Dew Point 32 °F    
Average Humidity 91    
Maximum Humidity 100    
Minimum Humidity 76    
Precipitation  
Precipitation 0.01 in - - ()
Sea Level Pressure  
Sea Level Pressure 29.76 in    
Wind  
Wind Speed 8 mph (West)    
Max Wind Speed 15 mph    
Max Gust Speed -    
Visibility 8 miles    
Events Rain    
Averages and records for this station are not official NWS values.
T = Trace of Precipitation, MM = Missing Value Source: NWS Daily Summary

Daily Weather History Graph

Daily Weather History Graph

Search for Another Location

Airport or City:

Trip Planner

Search our weather history database for the weather conditions in past years. The results will help you decide how hot, cold, wet, or windy it might be!

Date:

Astronomy

Aug. 22, 2013 Rise Set
Actual Time 5:25 AM AKDT 10:24 PM AKDT
Civil Twilight 3:47 AM AKDT 11:59 PM AKDT
Nautical Twilight Sun does not rise Sun does not rise
Astronomical Twilight Sun does not rise Sun does not rise
Moon 9:10 PM AKDT (8/22) 9:12 AM AKDT (8/22)
Length of Visible Light 20h 12m
Length of Day
16h 59m
Waning Gibbous, 96% of the Moon is Illuminated
Aug 22
Waning Gibbous
Aug 28
Last Quarter
Sep 5
New
Sep 12
First Quarter
Sep 19
Full

Hourly Weather History & Observations

Time (AKDT) Temp. Windchill Dew Point Humidity Pressure Visibility Wind Dir Wind Speed Gust Speed Precip Events Conditions
12:53 AM 32.0 °F 27.5 °F 28.9 °F 88% 29.77 in 10.0 mi West 4.6 mph - N/A   Mostly Cloudy
1:32 AM 28.4 °F 21.2 °F 28.4 °F 100% 29.76 in 10.0 mi WSW 6.9 mph - N/A   Partly Cloudy
1:53 AM 30.0 °F 24.1 °F 28.9 °F 96% 29.77 in 10.0 mi West 5.8 mph - N/A   Scattered Clouds
2:53 AM 30.0 °F 23.2 °F 28.0 °F 92% 29.76 in 10.0 mi West 6.9 mph - N/A   Partly Cloudy
3:19 AM 30.2 °F 24.3 °F 28.4 °F 93% 29.76 in 10.0 mi West 5.8 mph - N/A   Mostly Cloudy
3:53 AM 32.0 °F 25.6 °F 30.0 °F 92% 29.77 in 10.0 mi West 6.9 mph - N/A   Overcast
4:53 AM 32.0 °F 24.2 °F 30.0 °F 92% 29.76 in 10.0 mi West 9.2 mph - N/A   Overcast
5:53 AM 32.0 °F 23.0 °F 28.9 °F 88% 29.76 in 10.0 mi West 11.5 mph - N/A   Overcast
6:53 AM 33.1 °F 23.9 °F 30.9 °F 92% 29.75 in 10.0 mi West 12.7 mph - N/A   Overcast
7:53 AM 33.1 °F 23.4 °F 32.0 °F 96% 29.75 in 6.0 mi West 13.8 mph - N/A   Overcast
8:20 AM 33.8 °F 24.8 °F 32.0 °F 93% 29.75 in 2.5 mi West 12.7 mph - N/A   Overcast
8:36 AM 33.8 °F 24.8 °F 32.0 °F 93% 29.75 in 3.0 mi West 12.7 mph - N/A   Overcast
8:53 AM 34.0 °F 24.2 °F 32.0 °F 92% 29.75 in 9.0 mi West 15.0 mph - N/A   Overcast
9:24 AM 33.8 °F 24.8 °F 32.0 °F 93% 29.75 in 1.8 mi West 12.7 mph - N/A   Overcast
9:27 AM 33.8 °F 24.3 °F 32.0 °F 93% 29.75 in 1.5 mi West 13.8 mph - N/A   Overcast
9:50 AM 33.8 °F 24.3 °F 33.8 °F 100% 29.75 in 2.0 mi WSW 13.8 mph - N/A   Overcast
9:53 AM 34.0 °F 25.0 °F 33.1 °F 96% 29.76 in 2.0 mi WSW 12.7 mph - N/A   Overcast
10:53 AM 34.0 °F 25.0 °F 33.1 °F 96% 29.76 in 2.0 mi WSW 12.7 mph - N/A   Overcast
11:08 AM 33.8 °F 25.8 °F 33.8 °F 100% 29.76 in 6.0 mi West 10.4 mph - N/A   Overcast
11:25 AM 35.6 °F 27.5 °F 33.8 °F 93% 29.75 in 2.5 mi WSW 11.5 mph - N/A   Overcast
11:45 AM 35.6 °F 27.1 °F 33.8 °F 93% 29.76 in 9.0 mi West 12.7 mph - N/A   Overcast
11:53 AM 36.0 °F 28.5 °F 34.0 °F 93% 29.76 in 10.0 mi West 10.4 mph - N/A   Overcast
12:45 PM 35.6 °F 27.1 °F 33.8 °F 93% 29.76 in 10.0 mi West 12.7 mph - 0.00 in   Overcast
12:53 PM 36.0 °F 28.0 °F 34.0 °F 93% 29.77 in 10.0 mi West 11.5 mph - 0.00 in   Overcast
1:53 PM 37.0 °F 29.8 °F 34.0 °F 89% 29.77 in 10.0 mi West 10.4 mph - 0.00 in   Overcast
2:53 PM 37.0 °F 29.8 °F 33.1 °F 86% 29.77 in 10.0 mi WNW 10.4 mph - N/A   Overcast
3:05 PM 37.4 °F 29.8 °F 33.8 °F 87% 29.77 in 6.2 mi WNW 11.5 mph - N/A   Overcast
3:53 PM 37.0 °F 31.0 °F 33.1 °F 86% 29.78 in 10.0 mi NW 8.1 mph - N/A   Overcast
4:14 PM 37.4 °F 30.3 °F 33.8 °F 87% 29.77 in 6.2 mi NW 10.4 mph - N/A   Overcast
4:53 PM 37.9 °F 32.1 °F 33.1 °F 83% 29.77 in 10.0 mi NW 8.1 mph - N/A   Overcast
5:53 PM 37.9 °F 33.5 °F 30.9 °F 76% 29.77 in 10.0 mi NW 5.8 mph - N/A   Overcast
6:53 PM 37.9 °F 34.4 °F 32.0 °F 79% 29.76 in 10.0 mi NW 4.6 mph - N/A   Overcast
7:14 PM 37.4 °F 34.9 °F 33.8 °F 87% 29.75 in 10.0 mi North 3.5 mph - N/A   Overcast
7:53 PM 37.9 °F 35.5 °F 33.1 °F 83% 29.75 in 10.0 mi North 3.5 mph - 0.00 in   Overcast
8:38 PM 37.4 °F 34.9 °F 33.8 °F 87% 29.75 in 10.0 mi ENE 3.5 mph - 0.00 in Rain Light Rain
8:53 PM 37.0 °F 34.5 °F 34.0 °F 89% 29.75 in 10.0 mi NE 3.5 mph - 0.00 in Rain Light Rain
9:12 PM 37.4 °F 34.9 °F 33.8 °F 87% 29.75 in 10.0 mi NE 3.5 mph - 0.00 in Rain Light Rain
9:42 PM 35.6 °F 32.8 °F 33.8 °F 93% 29.75 in 10.0 mi ENE 3.5 mph - 0.01 in Rain Light Rain
9:53 PM 36.0 °F - 34.0 °F 93% 29.75 in 10.0 mi Calm Calm - 0.01 in Rain Light Rain
10:53 PM 36.0 °F - 34.0 °F 93% 29.75 in 10.0 mi Calm Calm - 0.00 in Rain Light Rain
11:53 PM 36.0 °F - 33.1 °F 89% 29.75 in 10.0 mi Calm Calm - 0.00 in Rain Light Rain